Regional Weather Roundup
Issued by NWS Midland/Odessa, TX

Skip options and go directly to product.
Home | Oldest Version | Next Version | Current Version | All | Text Only | Save Text | Print | Product List | Glossary On

Skip product version selection by date and time.   
222
ASUS44 KMAF 090801
RWRMAF
MIDLAND AREA WEATHER ROUNDUP
NATIONAL WEATHER SERVICE MIDLAND TX
200 AM CST TUE FEB 09 2016

...IN SOUTHWEST TEXAS AND SOUTHEAST NEW MEXICO...

CITY           SKY/WX    TMP DP  RH WIND       PRES   REMARKS
ALPINE         CLOUDY    25  16  67 CALM      30.47S
ANDREWS        FAIR      39  13  34 W7        30.41S WCI  34
ARTESIA        CLOUDY    28  16  59 NW7       30.41S WCI  21
BIG SPRING     CLEAR     30  16  56 CALM      30.43S
CARLSBAD       CLOUDY    32  16  51 SW5       30.39F WCI  27
DRYDEN           N/A     43  15  32 N9        30.38S WCI  38
FORT STOCKTON  CLOUDY    34  20  56 S7        30.41F WCI  28
GUAD PASS      CLOUDY    34  11  38 NE15      30.39S WCI  24
HOBBS          CLOUDY    27  16  63 NW8       30.41F WCI  18
MARFA          CLOUDY    23  13  65 N8        30.40F WCI  14
MIDLAND AIRPK  CLEAR     39  16  40 W6        30.41S WCI  34
MIDLAND INTL   CLEAR     34  17  50 W6        30.40S WCI  29
ODESSA         CLEAR     38  14  37 NW6       30.40F WCI  33
PECOS          CLOUDY    29  17  60 SW6       30.42F WCI  23
PRESIDIO       FAIR      44  12  26 N8        30.37S WCI  40
SEMINOLE       CLEAR     32  16  51 NW9       30.41S WCI  25
SNYDER           N/A     35  20  55 SW6       30.39R WCI  30
WINK           CLOUDY    30  14  51 N7        30.40F WCI  23
$$
...OTHER STATIONS IN TEXAS...

CITY           SKY/WX    TMP DP  RH WIND       PRES   REMARKS
ABILENE        CLEAR     36  19  50 CALM      30.36S
AMARILLO       CLEAR     34  21  59 W10       30.34F WCI  26
AUSTIN         CLEAR     41  21  44 W5        30.35R WCI  38
BROWNSVILLE    PTCLDY    45  40  82 CALM      30.37S
CORPUS CHRISTI CLOUDY    45  22  40 NW6       30.36S
DALLAS FTW     CLEAR     41  13  31 NW12      30.28S WCI  34
DEL RIO        CLEAR     39  28  64 W3        30.39S
EL PASO        CLEAR     39  14  36 E6        30.36R WCI  35
HOUSTON INT    PTCLDY    44  17  33 W8        30.30S WCI  39
LUBBOCK        CLEAR     27  17  66 W6        30.38S WCI  20
SAN ANGELO     PTCLDY    36  19  50 NW7       30.39S WCI  30
SAN ANTONIO    CLEAR     39  23  52 NW8       30.35F WCI  33
WACO           CLEAR     33  17  51 W8        30.34R WCI  26
WICHITA FALLS  NOT AVBL
$$
...OTHER LOCATIONS IN NEW MEXICO...

CITY           SKY/WX    TMP DP  RH WIND       PRES   REMARKS
ALAMAGORDO     CLOUDY    32  14  47 CALM      30.38S
ALBUQUERQUE    CLOUDY    32  19  58 CALM      30.39F
CANNON AFB     CLOUDY    30  15  54 NW6       30.39F WCI  24
CLOVIS         CLOUDY    27  16  63 NW6       30.39F WCI  20
HOLLOMAN AFB   CLOUDY    31  11  43 N5        30.37S WCI  27
ROSWELL        CLOUDY    32  15  49 CALM      30.40F
RUIDOSO          N/A     32  14  47 NW7       30.41F WCI  26
SANTA FE       CLOUDY    31  20  63 CALM      30.39F
TRUTH OR CONSE CLEAR     39  16  39 N3        30.38R
TUCUMCARI      CLOUDY    22  14  71 CALM      30.38S
$$

USA.gov is the U.S. government's official web portal to all federal, state and local government web resources and services.